Weather History for Detroit, MI

Change the Weather History Date:

Wednesday, November 6, 2013

  Actual Average Record
Temperature  
Mean Temperature 52 °F -  
Max Temperature 57 °F 50 °F 75 °F (1975)
Min Temperature 45 °F 37 °F 20 °F (1951)
Degree Days  
Heating Degree Days 14    
Growing Degree Days 2 (Base 50)    
Moisture  
Dew Point 46 °F    
Average Humidity 75    
Maximum Humidity 89    
Minimum Humidity 59    
Precipitation  
Precipitation 0.10 in - - ()
Sea Level Pressure  
Sea Level Pressure 29.95 in    
Wind  
Wind Speed 12 mph (SW)    
Max Wind Speed 22 mph    
Max Gust Speed 34 mph    
Visibility 10 miles    
Events Rain    
Averages and records for this station are not official NWS values.
T = Trace of Precipitation, MM = Missing Value Source: NWS Daily Summary

Daily Weather History Graph

Daily Weather History Graph

Search for Another Location

Airport:

Trip Planner

Search our weather history database for the weather conditions in past years. The results will help you decide how hot, cold, wet, or windy it might be!

Date:

Astronomy

Nov. 06, 2013 Rise Set
Actual Time 7:11 AM EST 5:18 PM EST
Civil Twilight 6:42 AM EST 5:48 PM EST
Nautical Twilight 6:08 AM EST 6:21 PM EST
Astronomical Twilight 5:35 AM EST 6:54 PM EST
Moon 10:27 AM EST (11/6) 8:20 PM EST (11/6)
Length of Visible Light 11h 06m
Length of Day
10h 06m
Waxing Crescent, 13% of the Moon is Illuminated
Nov 6
Waxing Crescent
Nov 10
First Quarter
Nov 17
Full
Nov 25
Last Quarter
Dec 2
New

Hourly Weather History & Observations

Time (EST) Temp. Windchill Dew Point Humidity Pressure Visibility Wind Dir Wind Speed Gust Speed Precip Events Conditions
12:53 AM 52.0 °F - 41.0 °F 66% 30.18 in 10.0 mi South 8.1 mph - N/A   Partly Cloudy
1:53 AM 53.1 °F - 39.9 °F 61% 30.14 in 10.0 mi South 11.5 mph - N/A   Scattered Clouds
2:53 AM 53.1 °F - 39.9 °F 61% 30.13 in 10.0 mi South 11.5 mph - N/A   Overcast
3:53 AM 52.0 °F - 39.9 °F 63% 30.10 in 10.0 mi South 10.4 mph - N/A   Overcast
4:53 AM 53.1 °F - 39.0 °F 59% 30.07 in 10.0 mi South 10.4 mph - N/A   Overcast
5:53 AM 53.1 °F - 39.0 °F 59% 30.05 in 10.0 mi South 10.4 mph - N/A   Overcast
6:53 AM 54.0 °F - 41.0 °F 62% 30.02 in 10.0 mi South 15.0 mph - N/A   Overcast
7:53 AM 53.1 °F - 43.0 °F 69% 29.99 in 10.0 mi South 11.5 mph 20.7 mph 0.00 in Rain Light Rain
8:53 AM 54.0 °F - 44.1 °F 69% 29.99 in 10.0 mi SSW 13.8 mph 21.9 mph 0.00 in Rain Light Rain
9:53 AM 53.1 °F - 46.9 °F 80% 29.98 in 10.0 mi SSW 11.5 mph 19.6 mph 0.03 in Rain Light Rain
10:53 AM 55.0 °F - 46.9 °F 74% 29.96 in 10.0 mi SSW 13.8 mph 21.9 mph 0.00 in Rain Light Rain
11:53 AM 55.9 °F - 48.9 °F 77% 29.93 in 10.0 mi SSW 16.1 mph 26.5 mph 0.00 in Rain Light Rain
12:53 PM 57.9 °F - 48.9 °F 72% 29.89 in 10.0 mi SW 15.0 mph 26.5 mph 0.01 in Rain Light Rain
1:31 PM 57.2 °F - 48.2 °F 72% 29.86 in 10.0 mi SSW 12.7 mph 20.7 mph 0.00 in   Overcast
1:40 PM 57.2 °F - 48.2 °F 72% 29.85 in 6.0 mi SSW 15.0 mph 21.9 mph 0.00 in Rain Light Rain
1:53 PM 57.0 °F - 50.0 °F 77% 29.85 in 10.0 mi SSW 15.0 mph 24.2 mph 0.00 in Rain Light Rain
2:53 PM 55.0 °F - 52.0 °F 89% 29.85 in 9.0 mi SSW 13.8 mph 19.6 mph 0.04 in Rain Light Rain
3:53 PM 55.9 °F - 52.0 °F 87% 29.85 in 10.0 mi SW 16.1 mph 24.2 mph 0.00 in   Overcast
4:50 PM 57.2 °F - 51.8 °F 82% 29.85 in 10.0 mi WSW 18.4 mph 34.5 mph N/A   Overcast
4:53 PM 57.0 °F - 51.1 °F 81% 29.85 in 10.0 mi SW 21.9 mph 33.4 mph N/A   Overcast
5:53 PM 55.9 °F - 51.1 °F 84% 29.83 in 10.0 mi SW 17.3 mph 27.6 mph 0.01 in Rain Light Rain
6:53 PM 55.9 °F - 51.1 °F 84% 29.84 in 10.0 mi SW 15.0 mph 20.7 mph 0.00 in   Overcast
7:53 PM 55.9 °F - 51.1 °F 84% 29.86 in 10.0 mi WSW 13.8 mph 20.7 mph N/A   Overcast
8:53 PM 50.0 °F - 46.0 °F 86% 29.91 in 6.0 mi WNW 11.5 mph - 0.01 in Rain Light Rain
9:05 PM 48.2 °F - 44.6 °F 87% 29.90 in 9.0 mi WNW 12.7 mph 26.5 mph 0.00 in Rain Light Rain
9:39 PM 48.2 °F - 42.8 °F 82% 29.93 in 10.0 mi WNW 15.0 mph 20.7 mph 0.00 in   Overcast
9:53 PM 48.0 °F - 42.1 °F 80% 29.92 in 10.0 mi WNW 6.9 mph 17.3 mph 0.00 in   Overcast
10:53 PM 46.9 °F - 41.0 °F 80% 29.96 in 10.0 mi WNW 10.4 mph 19.6 mph N/A   Overcast
11:53 PM 45.0 °F 39.3 °F 39.0 °F 80% 29.99 in 10.0 mi NW 11.5 mph - 0.00 in   Overcast